Regional Weather Roundup
Issued by NWS Green Bay, WI

Home | Current Version | Previous Version | Graphics & Text | Print | Product List | Glossary Off
Versions: 1 2 3 4 5 6 7 8 9 10 11 12 13 14 15 16 17 18 19 20 21 22 23 24 25 26 27 28 29 30 31 32 33 34 35 36 37 38 39 40 41 42 43 44 45 46 47 48 49 50

000
ASUS43 KGRB 020910
RWRGRB

NORTH-CENTRAL AND NORTHEAST WISCONSIN REGIONAL WEATHER ROUNDUP
NATIONAL WEATHER SERVICE GREEN BAY WI
300 AM CST MON MAR 02 2015

WIZ005-009-010>012-018-019-021000-
NORTH CENTRAL WISCONSIN

CITY           SKY/WX    TMP DP  RH WIND       PRES   REMARKS
IRONWOOD       CLOUDY    16   7  67 NW16      30.26S WCI   0
MANITOWISH WTR CLOUDY    13   5  70 NW14      30.24S WCI  -2
ARBOR VITAE    MOCLDY    17   6  63 NW7       30.25R WCI   7
EAGLE RIVER      N/A     13   5  69 NW8       30.22S WCI   2
LAND O LAKES   LGT SNOW  14  10  84 NW6       30.22S WCI   5
RHINELANDER    CLOUDY    14   3  61 W9        30.25R WCI   2
PHILLIPS       CLEAR     12   4  70 NW8       30.29R WCI   0
ANTIGO         MOCLDY    11   6  81 W10       30.25R WCI  -2
TOMAHAWK       CLOUDY    14   9  81 NW9       30.28R WCI   2
MERRILL        FLURRIES  11   6  81 W5        30.29R WCI   3
$$

WIZ013-073-021000-
NORTHEAST WISCONSIN

CITY           SKY/WX    TMP DP  RH WIND       PRES   REMARKS
IRON MOUNTAIN  MOCLDY    15   7  70 NW14G22   30.22R WCI   0
MARINETTE      CLEAR     14   3  62 W3        30.28R
OCONTO         CLEAR     13   5  72 W6        30.30S WCI   3
$$

WIZ017-030-035>037-045-021000-
CENTRAL WISCONSIN

CITY           SKY/WX    TMP DP  RH WIND       PRES   REMARKS
MEDFORD        CLEAR     12   6  77 W10G16    30.30S WCI  -2
WAUSAU         CLEAR     11   5  77 W7        30.29R WCI   0
MOSINEE        CLEAR     12   9  85 W10       30.31R WCI  -1
MARSHFIELD     CLEAR     14   6  70 W12       30.33R WCI   0
WISC RAPIDS    CLEAR     13   6  74 W5        30.37R WCI   5
STEVENS POINT  CLEAR     13   6  73 W8        30.33R WCI   2
WAUPACA        CLEAR     17   8  69 W6        30.35R WCI   8
SHAWANO        CLEAR     17   8  65 W3        30.32R
CLINTONVILLE   CLEAR     16   7  67 W6        30.32R WCI   7
$$

WIZ038-039-048-051-021000-
FOX VALLEY

CITY           SKY/WX    TMP DP  RH WIND       PRES   REMARKS
NWS GREEN BAY  CLEAR     16   8  71 W10       30.32R WCI   4
APPLETON       CLEAR     14   5  67 W8        30.33R WCI   3
OSHKOSH        CLEAR     14   6  70 W6        30.35R WCI   5
FOND DU LAC    CLEAR     14   6  70 W7        30.35R WCI   4
$$

WIZ022-050-052-021000-
EAST CENTRAL WISCONSIN

CITY           SKY/WX    TMP DP  RH WIND       PRES   REMARKS
STURGEON BAY   CLEAR     16   5  62 W10       30.30R WCI   3
MANITOWOC      CLEAR     17  10  74 W12       30.32R WCI   4
SHEBOYGAN      CLEAR     16   7  67 W8        30.34R WCI   5
$$

LMZ563-521-522-541>543-021000-
LAKESHORE

STATION/POSITION TIME  TEMP    WIND        PRES    VSBY  WAVE
                       AIR SEA DIR/SP/G                  HT/PER
                 (UTC) (F)     (DEG/KT/KT) (MB)    (MI)  (FT/S)
SHEBOYGAN LKSHOR 0900   19     270/ 10/ 12 1028.8R
KEWAUNEE LKSHORE 0900   17     290/  6/ 10 1025.3R
NORTHPORT PIER   0900   17     270/  7/ 13 1024.7R
CHAMBERS ISLAND  0900   16     230/  6/ 10 1025.4S
MENOMINEE LKSHOR 0900   17     240/  6     1026.0S
$$



USA.gov is the U.S. government's official web portal to all federal, state and local government web resources and services.